SCP
0 1 1 1 1 1 2 1 2 3 2 1 1 1 1 2 2 3 3 2 2 2 2 1 1 1 1 0 0 0 0 0 1 0 0 1 1 1 1 1 1 0 0
0 0 1 1 1 1 1 2 3 3 2 2 0 0 1 1 1 1 1 0 0 0 0 0 0 0 0 0 0 0 0 0 0 0 0 0 0 0 0 1 1 0 0
0 0 0 0 1 1 1 1 1 3 2 1 1 0 0 0 0 0 0 0 0 0 0 0 0 0 0 0 0 0 0 0 0 0 0 0 0 0 0 0 0 0 0
0 0 0 0 0 0 1 1 1 1 1 1 1 0 0 0 0 0 0 0 0 0 0 0 0 0 0 0 0 0 0 0 0 0 0 0 0 0 0 0 0 0 0
0 0 0 0 0 0 0 0 1 1 1 1 1 1 0 0 0 0 0 0 0 0 0 0 0 0 0 0 0 0 0 0 0 0 0 0 0 0 0 0 0 0 0
0 0 0 0 -0 0 0 0 0 0 0 1 1 1 1 0 0 0 0 0 0 0 0 0 0 0 0 0 0 0 0 0 0 0 0 0 0 0 0 0 0 0 0
0 0 0 0 0 0 0 0 0 0 0 0 0 1 1 1 0 0 0 1 1 0 0 0 0 0 0 0 0 0 0 0 0 0 0 0 0 0 0 0 0 0 0
0 0 0 0 0 0 0 0 0 0 0 0 0 1 1 2 1 0 0 1 2 1 1 0 0 0 0 0 0 0 0 0 0 0 0 0 0 0 0 0 0 0 1
0 0 0 0 0 0 0 0 0 0 0 0 0 0 1 1 1 0 0 1 1 1 1 0 0 0 0 0 0 0 0 0 0 0 -0 -0 0 0 0 0 0 1 0
0 0 0 0 0 0 0 0 0 0 0 0 0 0 0 1 0 0 0 1 1 1 1 1 0 0 0 0 0 0 0 0 0 0 0 0 0 0 0 0 0 0 0
0 0 0 0 0 0 0 0 0 0 0 0 0 0 0 1 1 0 0 1 1 1 1 1 0 0 0 0 0 0 0 0 0 0 0 0 0 0 0 0 0 0 0
0 0 0 0 0 0 0 0 0 0 0 0 0 0 0 0 0 0 0 0 0 1 1 0 0 0 0 0 0 -0 -0 0 0 0 -0 -0 0 0 0 0 0 0 0
0 0 0 0 0 0 0 0 0 0 0 0 0 0 0 0 0 0 0 0 0 0 0 0 0 0 0 0 0 0 0 0 0 0 -0 -0 0 0 0 0 0 0 0
0 0 0 0 0 0 0 0 0 0 0 0 0 0 0 0 0 0 0 0 0 0 0 0 0 0 0 0 0 0 0 0 0 -0 -0 0 0 0 0 0 0 0 0
0 0 0 0 0 0 0 0 0 0 0 0 0 0 0 0 0 0 0 0 0 0 0 0 0 0 0 0 0 0 0 0 -0 -0 -0 0 0 0 0 0 0 0 0
-0 0 0 0 0 0 0 0 0 0 0 0 0 0 0 0 0 0 0 0 0 0 0 0 0 0 0 0 0 0 0 -0 -0 -0 0 0 0 0 0 0 0 0 0
0 0 0 0 0 0 0 0 -0 0 0 0 0 0 0 0 0 0 0 0 0 0 0 0 0 0 0 0 0 0 0 -0 0 -0 0 0 0 0 0 0 0 0 0
-0 -0 0 0 0 0 0 0 0 0 0 0 0 0 0 0 0 0 0 0 0 0 0 0 0 0 0 0 0 0 0 0 0 0 0 0 0 0 0 0 0 0 0
0 0 0 0 0 0 0 0 0 0 0 0 0 0 0 0 0 0 0 0 0 0 0 0 0 0 0 0 0 0 0 0 0 0 0 0 0 -0 0 0 0 0 0
0 -0 0 0 0 0 0 0 0 0 0 0 0 0 0 0 0 0 0 0 0 0 0 0 0 0 0 0 0 0 0 0 0 0 0 0 0 0 0 0 0 0 0
0 0 0 0 0 0 0 0 0 0 -0 -0 0 0 -0 0 0 0 0 0 0 0 0 0 0 0 0 0 0 0 0 0 0 0 0 0 0 0 0 0 0 0 0
0 0 0 0 0 0 0 0 0 0 0 0 0 -0 0 0 0 0 0 0 0 0 0 0 0 0 0 0 0 0 0 0 0 0 0 0 0 0 0 0 0 0 0
0 0 0 0 0 0 0 0 0 0 0 0 -0 -0 0 0 0 0 0 0 0 0 0 0 -0 0 0 0 0 0 0 0 0 0 0 0 0 0 0 0 0 0 0
0 0 0 0 0 0 0 0 0 0 0 0 0 0 0 0 0 0 0 0 0 0 -0 -0 0 0 0 0 0 0 0 0 0 0 0 0 0 0 0 0 0 0 0
0 0 0 0 0 0 0 0 0 0 0 0 0 0 0 0 0 0 0 0 0 0 0 -0 -0 0 0 0 0 0 0 0 0 0 0 0 0 0 0 0 0 0 0
0 0 0 0 0 0 0 0 0 0 0 0 0 0 0 0 0 0 0 0 0 0 0 0 0 0 0 0 0 0 0 0 0 0 0 0 0 0 0 0 0 0 0
Wind_Speed_500mb
21 21 24 29 34 36 38 46 47 44 44 40 38 39 37 37 38 39 39 40 40 37 37 36 36 35 36 35 37 36 39 40 48 49 53 54 56 57 50 35 42 41 47
12 11 15 19 21 25 32 43 47 42 33 35 34 33 34 34 39 39 39 39 36 34 31 29 27 26 25 27 31 32 34 35 41 43 47 45 48 51 51 50 52 43 43
13 5 15 12 12 18 23 28 34 38 27 33 31 36 34 40 40 36 37 35 32 28 25 22 19 17 18 19 21 23 27 32 36 45 48 41 43 43 52 45 50 51 43
24 26 31 24 25 22 17 32 33 39 41 41 41 44 42 42 40 39 37 36 32 28 24 19 16 17 18 18 18 23 24 27 31 40 43 40 42 42 52 51 59 53 48
28 30 42 66 54 36 24 21 28 52 54 62 57 58 51 49 48 48 45 41 38 33 30 25 23 22 25 26 24 26 30 33 36 40 43 41 41 42 51 38 42 36 43
31 29 28 27 49 67 54 46 30 37 44 54 72 65 59 61 59 64 59 49 45 41 38 36 31 35 34 31 32 35 39 45 46 43 49 47 45 42 43 42 45 39 33
39 37 36 32 32 43 58 59 59 58 45 46 55 60 68 69 72 73 72 64 56 52 49 44 40 35 38 33 35 42 44 46 48 51 53 49 53 44 42 48 49 45 40
46 45 44 43 43 39 39 49 48 59 77 69 51 54 59 67 76 78 81 77 74 64 56 54 50 45 42 41 37 39 43 41 44 44 46 48 46 44 47 51 52 46 37
53 52 51 50 51 50 51 49 52 50 52 50 54 61 62 59 68 77 79 81 70 71 64 60 57 52 52 54 44 49 50 52 44 50 46 50 50 52 48 40 37 33 36
61 60 59 60 60 59 57 56 56 55 59 57 59 59 60 59 59 70 72 69 65 66 67 62 68 61 63 62 51 49 46 53 46 43 39 43 44 38 32 38 31 30 34
71 70 66 65 66 65 64 63 61 62 63 66 69 70 68 66 65 73 74 70 63 63 64 61 59 64 69 67 58 54 59 57 61 59 45 43 40 33 31 37 35 33 30
70 71 69 69 71 74 75 75 72 69 70 73 72 76 77 77 73 70 85 84 78 74 70 64 62 63 66 64 58 61 63 61 64 66 45 43 41 37 41 43 32 30 38
76 76 74 82 77 72 67 65 64 67 70 73 74 77 82 80 78 82 83 91 88 93 81 75 69 68 67 69 66 70 68 68 72 56 46 45 43 42 45 38 33 33 33
66 71 66 63 67 70 70 73 76 78 73 72 74 77 75 75 81 80 77 83 92 89 91 88 80 78 72 58 62 71 77 75 67 54 48 46 41 41 45 39 39 35 37
68 64 63 65 66 70 70 70 74 76 70 67 71 72 71 74 75 68 75 70 69 82 70 70 70 69 68 65 60 61 62 64 54 48 48 51 40 50 43 39 40 36 35
62 62 64 67 69 70 70 76 80 85 87 86 86 78 66 73 66 66 72 74 63 63 70 79 76 76 74 67 63 63 61 57 51 48 47 44 48 55 49 39 38 40 34
63 65 67 68 74 75 73 79 82 81 82 85 86 86 86 95 68 77 55 61 67 65 69 64 67 72 70 68 65 60 55 52 47 47 47 45 54 50 50 45 39 33 28
61 63 64 68 74 78 74 77 75 74 71 74 73 71 78 83 85 86 73 59 55 70 79 75 71 65 64 63 58 53 51 48 46 47 46 52 56 48 41 41 36 34 27
61 63 65 64 67 69 67 73 77 76 74 72 67 66 60 59 74 81 89 66 71 65 75 67 65 59 57 51 50 51 47 44 47 48 52 58 51 50 44 40 34 31 29
60 61 64 64 64 61 63 67 70 69 68 69 66 66 62 60 69 76 82 89 76 86 61 70 62 63 52 50 42 46 40 43 50 49 55 56 50 49 38 37 33 31 26
55 48 42 42 42 40 38 42 35 32 32 35 38 42 61 63 69 81 87 93 85 74 63 58 59 51 52 41 38 44 40 44 53 48 58 59 56 47 43 40 32 28 25
28 29 28 29 21 15 21 2 3 6 15 14 13 22 52 60 62 71 80 84 85 81 52 55 48 44 43 45 42 43 46 50 51 48 57 56 47 43 39 35 30 27 29
22 23 25 19 12 5 8 14 13 19 17 24 37 41 48 49 53 64 71 62 70 70 55 46 42 41 41 44 42 48 48 50 51 53 58 57 52 43 39 33 29 30 29
21 24 18 16 15 19 24 25 23 24 29 27 24 37 36 37 43 47 50 55 55 50 47 49 51 51 46 44 41 42 50 46 53 55 58 54 46 45 36 36 35 29 27
17 15 20 23 32 32 31 31 28 27 29 33 35 37 38 40 45 49 50 49 49 47 50 53 59 49 41 48 41 40 32 38 55 57 51 46 45 39 33 34 36 36 31
30 31 32 36 36 37 42 36 30 32 30 27 30 30 31 36 38 37 38 44 46 46 44 48 44 45 45 41 42 45 53 57 58 54 47 47 44 39 41 37 32 32 28
Wind_Direction_500mb
320 279 250 234 223 214 211 209 212 212 212 216 213 213 217 218 220 222 221 225 227 228 225 227 234 238 242 253 256 261 261 267 267 273 271 269 279 282 289 287 296 285 252
357 317 267 247 240 225 212 201 200 199 206 208 200 209 212 219 221 219 222 224 223 221 222 218 226 236 249 253 254 260 262 263 273 274 272 270 277 278 280 275 290 276 252
311 350 358 359 305 265 249 228 216 203 213 219 202 209 211 216 217 216 213 205 204 203 207 211 212 223 236 241 253 261 264 270 270 273 275 278 276 272 271 271 287 287 260
313 261 272 316 334 326 299 249 236 229 219 224 217 213 214 217 211 210 206 204 205 210 213 217 226 232 240 248 262 270 279 280 283 281 278 274 270 275 274 273 287 283 270
322 307 258 256 288 297 294 302 264 238 241 235 236 229 219 218 216 215 214 215 216 218 225 230 242 239 242 256 265 273 278 286 282 281 282 280 273 272 275 278 271 273 274
300 298 299 283 259 269 285 282 280 266 249 239 232 230 229 226 223 218 216 218 222 225 229 236 240 253 266 274 280 289 292 288 281 279 278 278 281 274 277 273 278 286 250
290 287 281 278 270 251 255 261 262 269 271 249 243 237 232 231 230 232 232 225 225 229 231 235 241 252 260 264 280 296 299 297 292 290 276 273 275 273 271 275 282 267 244
281 278 275 272 267 262 247 241 246 250 250 257 251 243 236 233 233 232 236 238 237 232 231 234 236 240 246 263 276 284 291 287 284 281 279 279 281 277 270 272 270 268 239
278 276 271 266 263 259 254 250 245 244 247 246 250 249 247 240 233 234 236 239 236 232 232 232 232 236 249 268 274 286 293 299 295 294 293 289 279 276 276 256 227 223 229
276 274 270 264 260 257 255 254 253 251 250 248 247 242 241 238 240 239 236 234 231 231 231 229 233 233 254 266 268 280 284 299 299 296 279 278 284 273 254 222 223 233 230
273 273 268 260 258 258 257 256 254 251 249 245 244 242 240 238 237 239 237 234 226 227 225 229 234 245 249 255 261 272 284 298 300 294 283 279 278 267 258 232 242 233 230
272 269 265 261 259 259 257 255 247 247 247 246 245 244 241 240 236 234 236 234 229 223 230 233 236 243 252 257 260 273 282 290 293 294 281 280 276 249 254 241 238 235 235
276 271 266 266 263 257 255 248 246 247 249 248 244 243 241 238 238 237 235 235 232 229 230 237 239 240 244 255 263 270 278 279 285 278 273 270 265 254 242 232 225 229 223
273 272 269 261 259 258 253 253 253 250 245 242 243 244 243 240 236 233 236 236 236 233 233 233 232 235 241 247 259 270 274 274 274 263 263 262 264 259 237 220 220 223 217
273 270 265 264 260 262 259 255 248 245 242 243 245 242 239 238 236 233 229 228 228 229 225 227 234 238 244 248 252 258 259 260 257 257 253 256 251 225 225 217 210 214 210
269 266 265 266 264 261 259 257 254 252 250 248 242 237 239 241 236 233 233 229 228 225 226 227 233 237 241 245 249 253 254 258 249 247 246 243 229 228 218 212 214 213 210
266 266 268 266 264 263 261 259 258 259 256 252 249 246 240 235 230 237 231 228 226 224 222 225 230 234 240 242 243 244 247 245 243 239 234 228 218 216 218 210 206 205 199
275 274 271 270 272 272 267 264 264 258 251 250 255 247 241 236 231 224 226 223 220 224 226 231 233 235 234 233 234 235 235 235 235 233 223 214 212 209 205 198 194 194 185
282 282 282 283 279 277 272 267 264 260 259 256 252 247 238 230 225 222 217 218 216 219 219 220 222 223 229 229 225 229 231 232 229 222 212 218 208 201 192 187 185 185 184
292 291 289 288 286 277 271 267 263 259 256 252 245 239 235 224 218 216 213 213 214 217 216 212 216 218 216 216 220 219 222 225 219 212 211 214 209 192 183 177 181 187 185
296 299 301 299 299 299 294 278 277 267 260 259 254 238 220 217 207 207 205 204 206 209 206 208 215 217 217 219 224 217 224 216 206 209 208 203 192 180 178 175 176 178 179
317 323 328 335 331 342 331 256 196 219 234 228 231 198 191 202 202 202 204 203 202 207 208 212 212 211 213 214 218 216 213 203 200 209 199 192 176 170 164 169 173 175 172
359 2 13 21 333 351 62 138 145 114 105 112 115 127 166 184 190 193 193 193 199 197 201 209 208 212 216 214 214 213 207 207 202 195 186 175 166 162 164 169 172 172 177
31 32 35 62 73 72 78 103 124 113 108 112 102 125 141 149 163 168 176 182 189 198 207 213 212 219 212 207 203 199 201 202 190 183 174 164 161 161 164 169 168 163 154
46 66 83 82 80 85 86 99 118 124 124 126 127 129 138 151 156 169 180 185 193 198 201 204 198 210 203 189 194 196 180 193 185 164 160 160 158 154 158 151 155 163 165
61 80 94 94 90 84 78 85 92 100 114 123 127 140 150 158 164 173 180 188 194 193 194 197 196 196 187 185 172 168 178 182 162 156 150 151 150 155 162 167 165 161 163
Wind_Speed_850mb
21 21 24 29 34 36 38 46 47 44 44 40 38 39 37 37 38 39 39 40 40 37 37 36 36 35 36 35 37 36 39 40 48 49 53 54 56 57 50 35 42 41 47
12 11 15 19 21 25 32 43 47 42 33 35 34 33 34 34 39 39 39 39 36 34 31 29 27 26 25 27 31 32 34 35 41 43 47 45 48 51 51 50 52 43 43
13 5 15 12 12 18 23 28 34 38 27 33 31 36 34 40 40 36 37 35 32 28 25 22 19 17 18 19 21 23 27 32 36 45 48 41 43 43 52 45 50 51 43
24 26 31 24 25 22 17 32 33 39 41 41 41 44 42 42 40 39 37 36 32 28 24 19 16 17 18 18 18 23 24 27 31 40 43 40 42 42 52 51 59 53 48
28 30 42 66 54 36 24 21 28 52 54 62 57 58 51 49 48 48 45 41 38 33 30 25 23 22 25 26 24 26 30 33 36 40 43 41 41 42 51 38 42 36 43
31 29 28 27 49 67 54 46 30 37 44 54 72 65 59 61 59 64 59 49 45 41 38 36 31 35 34 31 32 35 39 45 46 43 49 47 45 42 43 42 45 39 33
39 37 36 32 32 43 58 59 59 58 45 46 55 60 68 69 72 73 72 64 56 52 49 44 40 35 38 33 35 42 44 46 48 51 53 49 53 44 42 48 49 45 40
46 45 44 43 43 39 39 49 48 59 77 69 51 54 59 67 76 78 81 77 74 64 56 54 50 45 42 41 37 39 43 41 44 44 46 48 46 44 47 51 52 46 37
53 52 51 50 51 50 51 49 52 50 52 50 54 61 62 59 68 77 79 81 70 71 64 60 57 52 52 54 44 49 50 52 44 50 46 50 50 52 48 40 37 33 36
61 60 59 60 60 59 57 56 56 55 59 57 59 59 60 59 59 70 72 69 65 66 67 62 68 61 63 62 51 49 46 53 46 43 39 43 44 38 32 38 31 30 34
71 70 66 65 66 65 64 63 61 62 63 66 69 70 68 66 65 73 74 70 63 63 64 61 59 64 69 67 58 54 59 57 61 59 45 43 40 33 31 37 35 33 30
70 71 69 69 71 74 75 75 72 69 70 73 72 76 77 77 73 70 85 84 78 74 70 64 62 63 66 64 58 61 63 61 64 66 45 43 41 37 41 43 32 30 38
76 76 74 82 77 72 67 65 64 67 70 73 74 77 82 80 78 82 83 91 88 93 81 75 69 68 67 69 66 70 68 68 72 56 46 45 43 42 45 38 33 33 33
66 71 66 63 67 70 70 73 76 78 73 72 74 77 75 75 81 80 77 83 92 89 91 88 80 78 72 58 62 71 77 75 67 54 48 46 41 41 45 39 39 35 37
68 64 63 65 66 70 70 70 74 76 70 67 71 72 71 74 75 68 75 70 69 82 70 70 70 69 68 65 60 61 62 64 54 48 48 51 40 50 43 39 40 36 35
62 62 64 67 69 70 70 76 80 85 87 86 86 78 66 73 66 66 72 74 63 63 70 79 76 76 74 67 63 63 61 57 51 48 47 44 48 55 49 39 38 40 34
63 65 67 68 74 75 73 79 82 81 82 85 86 86 86 95 68 77 55 61 67 65 69 64 67 72 70 68 65 60 55 52 47 47 47 45 54 50 50 45 39 33 28
61 63 64 68 74 78 74 77 75 74 71 74 73 71 78 83 85 86 73 59 55 70 79 75 71 65 64 63 58 53 51 48 46 47 46 52 56 48 41 41 36 34 27
61 63 65 64 67 69 67 73 77 76 74 72 67 66 60 59 74 81 89 66 71 65 75 67 65 59 57 51 50 51 47 44 47 48 52 58 51 50 44 40 34 31 29
60 61 64 64 64 61 63 67 70 69 68 69 66 66 62 60 69 76 82 89 76 86 61 70 62 63 52 50 42 46 40 43 50 49 55 56 50 49 38 37 33 31 26
55 48 42 42 42 40 38 42 35 32 32 35 38 42 61 63 69 81 87 93 85 74 63 58 59 51 52 41 38 44 40 44 53 48 58 59 56 47 43 40 32 28 25
28 29 28 29 21 15 21 2 3 6 15 14 13 22 52 60 62 71 80 84 85 81 52 55 48 44 43 45 42 43 46 50 51 48 57 56 47 43 39 35 30 27 29
22 23 25 19 12 5 8 14 13 19 17 24 37 41 48 49 53 64 71 62 70 70 55 46 42 41 41 44 42 48 48 50 51 53 58 57 52 43 39 33 29 30 29
21 24 18 16 15 19 24 25 23 24 29 27 24 37 36 37 43 47 50 55 55 50 47 49 51 51 46 44 41 42 50 46 53 55 58 54 46 45 36 36 35 29 27
17 15 20 23 32 32 31 31 28 27 29 33 35 37 38 40 45 49 50 49 49 47 50 53 59 49 41 48 41 40 32 38 55 57 51 46 45 39 33 34 36 36 31
30 31 32 36 36 37 42 36 30 32 30 27 30 30 31 36 38 37 38 44 46 46 44 48 44 45 45 41 42 45 53 57 58 54 47 47 44 39 41 37 32 32 28
Wind_Direction_850mb
320 279 250 234 223 214 211 209 212 212 212 216 213 213 217 218 220 222 221 225 227 228 225 227 234 238 242 253 256 261 261 267 267 273 271 269 279 282 289 287 296 285 252
357 317 267 247 240 225 212 201 200 199 206 208 200 209 212 219 221 219 222 224 223 221 222 218 226 236 249 253 254 260 262 263 273 274 272 270 277 278 280 275 290 276 252
311 350 358 359 305 265 249 228 216 203 213 219 202 209 211 216 217 216 213 205 204 203 207 211 212 223 236 241 253 261 264 270 270 273 275 278 276 272 271 271 287 287 260
313 261 272 316 334 326 299 249 236 229 219 224 217 213 214 217 211 210 206 204 205 210 213 217 226 232 240 248 262 270 279 280 283 281 278 274 270 275 274 273 287 283 270
322 307 258 256 288 297 294 302 264 238 241 235 236 229 219 218 216 215 214 215 216 218 225 230 242 239 242 256 265 273 278 286 282 281 282 280 273 272 275 278 271 273 274
300 298 299 283 259 269 285 282 280 266 249 239 232 230 229 226 223 218 216 218 222 225 229 236 240 253 266 274 280 289 292 288 281 279 278 278 281 274 277 273 278 286 250
290 287 281 278 270 251 255 261 262 269 271 249 243 237 232 231 230 232 232 225 225 229 231 235 241 252 260 264 280 296 299 297 292 290 276 273 275 273 271 275 282 267 244
281 278 275 272 267 262 247 241 246 250 250 257 251 243 236 233 233 232 236 238 237 232 231 234 236 240 246 263 276 284 291 287 284 281 279 279 281 277 270 272 270 268 239
278 276 271 266 263 259 254 250 245 244 247 246 250 249 247 240 233 234 236 239 236 232 232 232 232 236 249 268 274 286 293 299 295 294 293 289 279 276 276 256 227 223 229
276 274 270 264 260 257 255 254 253 251 250 248 247 242 241 238 240 239 236 234 231 231 231 229 233 233 254 266 268 280 284 299 299 296 279 278 284 273 254 222 223 233 230
273 273 268 260 258 258 257 256 254 251 249 245 244 242 240 238 237 239 237 234 226 227 225 229 234 245 249 255 261 272 284 298 300 294 283 279 278 267 258 232 242 233 230
272 269 265 261 259 259 257 255 247 247 247 246 245 244 241 240 236 234 236 234 229 223 230 233 236 243 252 257 260 273 282 290 293 294 281 280 276 249 254 241 238 235 235
276 271 266 266 263 257 255 248 246 247 249 248 244 243 241 238 238 237 235 235 232 229 230 237 239 240 244 255 263 270 278 279 285 278 273 270 265 254 242 232 225 229 223
273 272 269 261 259 258 253 253 253 250 245 242 243 244 243 240 236 233 236 236 236 233 233 233 232 235 241 247 259 270 274 274 274 263 263 262 264 259 237 220 220 223 217
273 270 265 264 260 262 259 255 248 245 242 243 245 242 239 238 236 233 229 228 228 229 225 227 234 238 244 248 252 258 259 260 257 257 253 256 251 225 225 217 210 214 210
269 266 265 266 264 261 259 257 254 252 250 248 242 237 239 241 236 233 233 229 228 225 226 227 233 237 241 245 249 253 254 258 249 247 246 243 229 228 218 212 214 213 210
266 266 268 266 264 263 261 259 258 259 256 252 249 246 240 235 230 237 231 228 226 224 222 225 230 234 240 242 243 244 247 245 243 239 234 228 218 216 218 210 206 205 199
275 274 271 270 272 272 267 264 264 258 251 250 255 247 241 236 231 224 226 223 220 224 226 231 233 235 234 233 234 235 235 235 235 233 223 214 212 209 205 198 194 194 185
282 282 282 283 279 277 272 267 264 260 259 256 252 247 238 230 225 222 217 218 216 219 219 220 222 223 229 229 225 229 231 232 229 222 212 218 208 201 192 187 185 185 184
292 291 289 288 286 277 271 267 263 259 256 252 245 239 235 224 218 216 213 213 214 217 216 212 216 218 216 216 220 219 222 225 219 212 211 214 209 192 183 177 181 187 185
296 299 301 299 299 299 294 278 277 267 260 259 254 238 220 217 207 207 205 204 206 209 206 208 215 217 217 219 224 217 224 216 206 209 208 203 192 180 178 175 176 178 179
317 323 328 335 331 342 331 256 196 219 234 228 231 198 191 202 202 202 204 203 202 207 208 212 212 211 213 214 218 216 213 203 200 209 199 192 176 170 164 169 173 175 172
359 2 13 21 333 351 62 138 145 114 105 112 115 127 166 184 190 193 193 193 199 197 201 209 208 212 216 214 214 213 207 207 202 195 186 175 166 162 164 169 172 172 177
31 32 35 62 73 72 78 103 124 113 108 112 102 125 141 149 163 168 176 182 189 198 207 213 212 219 212 207 203 199 201 202 190 183 174 164 161 161 164 169 168 163 154
46 66 83 82 80 85 86 99 118 124 124 126 127 129 138 151 156 169 180 185 193 198 201 204 198 210 203 189 194 196 180 193 185 164 160 160 158 154 158 151 155 163 165
61 80 94 94 90 84 78 85 92 100 114 123 127 140 150 158 164 173 180 188 194 193 194 197 196 196 187 185 172 168 178 182 162 156 150 151 150 155 162 167 165 161 163